Flag for U.S.A. Weather past 2 weeks in Syracuse, New York, U.S.A.

Now
59 °F

Overcast.


Feels Like: 58 °F
Forecast: 57 / 72 °F
Wind: 7 mph from West

Location: Syracuse Hancock International Airport

Current Time: Jul 28, 2014 at 11:12:13 PM

Latest Report: Jul 28, 2014 at 10:54 PM


Visibility: 10 mi

Pressure: 29.78 "Hg

Humidity: 96%

Dew point: 58 °F

Location of SyracuseLocation

Historic Weather in Syracuse — Graph

°F

Syracuse temperature yesterday

Maximum temperature yesterday: 81 °F (at 1:54 PM)
Minimum temperature yesterday: 68 °F (at 6:00 AM)
Average temperature yesterday: 75 °F

Past Weeks' High & Low Weather Summary

 TemperatureHumidityPressure
High88 °F (Jul 23, 11:54 AM)100% (Jul 15, 5:54 AM)30.23 "Hg (Jul 15, 5:54 AM)
Low55 °F (Jul 18, 4:54 AM)36% (Jul 25, 1:54 PM)29.52 "Hg (Jul 28, 6:54 AM)
Average71 °F70%29.93 "Hg
* Reported Jul 13 9:54 PM — Jul 28 9:54 PM, Syracuse, Weather by CustomWeather, © 2014

Note: Actual official high and low records may vary slightly from our data, if they occured in-between our weather recording intervals... More about our weather records

Advertising

Syracuse weather history for previous 24 hours

 ConditionsComfort  
Time TempWeatherWind HumidityBarometerVisibility
9:54 PM
Jul 28
59 °FOvercast.6 mph96%29.76 "Hg10 mi
8:54 PM59 °FOvercast.7 mph96%29.75 "Hg10 mi
7:54 PM59 °FMostly cloudy.8 mph96%29.73 "Hg10 mi
6:54 PM60 °FLight rain. Overcast.10 mph93%29.71 "Hg10 mi
5:54 PM61 °FLight rain. More clouds than sun.14 mph93%29.67 "Hg10 mi
4:54 PM61 °FLight rain. Mostly cloudy.13 mph97%29.65 "Hg10 mi
3:54 PM61 °FLight rain. Fog.15 mph97%29.61 "Hg6 mi
3:03 PM63 °FLight rain. Mostly cloudy.14 mph94%29.59 "Hg8 mi
2:54 PM62 °FLight rain. Fog.15 mph96%29.58 "Hg5 mi
1:54 PM64 °FLight rain. Mostly cloudy.13 mph97%29.55 "Hg10 mi
12:54 PM65 °FLight rain. Cloudy.10 mph94%29.53 "Hg7 mi
12:01 PM64 °FCloudy.6 mph94%29.55 "Hg10 mi
11:00 AM64 °FLight rain. Cloudy.6 mph94%29.54 "Hg10 mi
10:01 AM64 °FHeavy rain. Fog.12 mph94%29.53 "Hg1 mi
8:57 AM64 °FHeavy rain. Fog.8 mph94%29.54 "Hg1 mi
8:01 AM66 °FHeavy rain. Fog.No wind94%29.54 "Hg2 mi
6:54 AM66 °FLight rain. Mostly cloudy.5 mph93%29.52 "Hg10 mi
5:54 AM66 °FMostly cloudy.5 mph93%29.52 "Hg10 mi
5:03 AM66 °FPassing clouds.6 mph94%29.55 "Hg10 mi
4:54 AM67 °FPartly cloudy.5 mph93%29.53 "Hg10 mi
3:54 AM67 °FLight rain. Fog.8 mph93%29.54 "Hg5 mi
2:54 AM69 °FHeavy rain. Fog.5 mph87%29.57 "Hg3 mi
1:54 AM70 °FLight rain. Overcast.5 mph81%29.57 "Hg10 mi
12:54 AM71 °FMostly cloudy.5 mph76%29.58 "Hg10 mi
11:54 PM
Jul 27
69 °FPartly cloudy.6 mph84%29.60 "Hg10 mi
Weather by CustomWeather, © 2014

See weather overviewHow to use our weather pages